Time,TemperatureF,DewpointF,PressureIn,WindDirection,WindDirectionDegrees,WindSpeedMPH,WindSpeedGustMPH,Humidity,HourlyPrecipIn,Conditions,Clouds,dailyrainin,SolarRadiationWatts/m^2,SoftwareType,DateUTC
2013-01-12 00:03:00,56.0,56.0,-100.00,SW,220,4.0,11.0,100,0.01,,,0.55,0.000000,,2013-01-12 05:03:00,
2013-01-12 00:32:00,56.0,56.0,-100.00,SW,219,5.0,7.0,100,0.03,,,0.56,0.000000,,2013-01-12 05:32:00,
2013-01-12 00:42:00,56.0,56.0,-100.00,SW,219,5.0,7.0,100,0.03,,,0.56,0.000000,,2013-01-12 05:42:00,
2013-01-12 00:53:00,56.0,56.0,-100.00,SW,219,5.0,7.0,100,0.03,,,0.56,0.000000,,2013-01-12 05:53:00,
2013-01-12 01:03:00,56.0,56.0,-100.00,SW,219,5.0,7.0,100,0.03,,,0.56,0.000000,,2013-01-12 06:03:00,
2013-01-12 01:33:00,56.0,56.0,-100.00,SW,225,6.0,12.0,100,0.03,,,0.57,0.000000,,2013-01-12 06:33:00,
2013-01-12 01:43:00,56.0,56.0,-100.00,SW,225,6.0,12.0,100,0.03,,,0.57,0.000000,,2013-01-12 06:43:00,
2013-01-12 01:53:00,56.0,56.0,-100.00,SW,225,6.0,12.0,100,0.03,,,0.57,0.000000,,2013-01-12 06:53:00,
2013-01-12 02:02:00,56.0,56.0,-100.00,SW,225,6.0,12.0,100,0.03,,,0.57,0.000000,,2013-01-12 07:02:00,
2013-01-12 02:32:00,56.0,56.0,-100.00,SW,232,7.0,12.0,100,0.04,,,0.61,0.000000,,2013-01-12 07:32:00,
2013-01-12 02:42:00,56.0,56.0,-100.00,SW,232,7.0,12.0,100,0.04,,,0.61,0.000000,,2013-01-12 07:42:00,
2013-01-12 02:53:00,56.0,56.0,-100.00,SW,232,7.0,12.0,100,0.04,,,0.61,0.000000,,2013-01-12 07:53:00,
2013-01-12 03:02:00,56.0,56.0,-100.00,SW,232,7.0,12.0,100,0.04,,,0.61,0.000000,,2013-01-12 08:02:00,
2013-01-12 03:32:00,56.0,56.0,-100.00,SW,221,6.0,11.0,100,0.00,,,0.57,0.000000,,2013-01-12 08:32:00,
2013-01-12 03:42:00,56.0,56.0,-100.00,SW,221,6.0,11.0,100,0.00,,,0.57,0.000000,,2013-01-12 08:42:00,
2013-01-12 03:53:00,56.0,56.0,-100.00,SW,221,6.0,11.0,100,0.00,,,0.57,0.000000,,2013-01-12 08:53:00,
2013-01-12 04:02:00,56.0,56.0,-100.00,SW,221,6.0,11.0,100,0.00,,,0.57,0.000000,,2013-01-12 09:02:00,
2013-01-12 04:33:00,56.0,56.0,-100.00,SW,228,7.0,15.0,100,0.00,,,0.54,0.000000,,2013-01-12 09:33:00,
2013-01-12 04:43:00,56.0,56.0,-100.00,SW,228,7.0,15.0,100,0.00,,,0.54,0.000000,,2013-01-12 09:43:00,
2013-01-12 04:53:00,56.0,56.0,-100.00,SW,228,7.0,15.0,100,0.00,,,0.54,0.000000,,2013-01-12 09:53:00,
2013-01-12 05:02:00,56.0,56.0,-100.00,SW,228,7.0,15.0,100,0.00,,,0.54,0.000000,,2013-01-12 10:02:00,
2013-01-12 05:32:00,55.0,55.0,-100.00,West,261,5.0,14.0,100,0.00,,,0.44,0.000000,,2013-01-12 10:32:00,
2013-01-12 05:43:00,55.0,55.0,-100.00,West,261,5.0,14.0,100,0.00,,,0.44,0.000000,,2013-01-12 10:43:00,
2013-01-12 05:52:00,55.0,55.0,-100.00,West,261,5.0,14.0,100,0.00,,,0.44,0.000000,,2013-01-12 10:52:00,
2013-01-12 06:02:00,55.0,55.0,-100.00,West,261,5.0,14.0,100,0.00,,,0.44,0.000000,,2013-01-12 11:02:00,
2013-01-12 06:33:00,55.0,55.0,-100.00,West,276,3.0,15.0,100,0.00,,,0.39,0.000000,,2013-01-12 11:33:00,
2013-01-12 06:43:00,55.0,55.0,-100.00,West,276,3.0,15.0,100,0.00,,,0.39,0.000000,,2013-01-12 11:43:00,
2013-01-12 06:53:00,55.0,55.0,-100.00,West,276,3.0,15.0,100,0.00,,,0.39,0.000000,,2013-01-12 11:53:00,
2013-01-12 07:03:00,55.0,55.0,-100.00,West,276,3.0,15.0,100,0.00,,,0.39,0.000000,,2013-01-12 12:03:00,
2013-01-12 07:33:00,56.0,54.0,-100.00,WSW,251,4.0,11.0,93,0.00,,,0.32,0.000000,,2013-01-12 12:33:00,
2013-01-12 07:43:00,56.0,54.0,-100.00,WSW,251,4.0,11.0,93,0.00,,,0.32,0.000000,,2013-01-12 12:43:00,
2013-01-12 07:53:00,56.0,54.0,-100.00,WSW,251,4.0,11.0,93,0.00,,,0.32,0.000000,,2013-01-12 12:53:00,
2013-01-12 08:02:00,56.0,54.0,-100.00,WSW,251,4.0,11.0,93,0.00,,,0.32,0.000000,,2013-01-12 13:02:00,
2013-01-12 08:33:00,58.0,55.0,-100.00,WSW,252,6.0,13.0,89,0.00,,,0.27,2.000000,,2013-01-12 13:33:00,
2013-01-12 08:43:00,58.0,55.0,-100.00,WSW,252,6.0,13.0,89,0.00,,,0.27,2.000000,,2013-01-12 13:43:00,
2013-01-12 08:53:00,58.0,55.0,-100.00,WSW,252,6.0,13.0,89,0.00,,,0.27,2.000000,,2013-01-12 13:53:00,
2013-01-12 09:02:00,58.0,55.0,-100.00,WSW,252,6.0,13.0,89,0.00,,,0.27,2.000000,,2013-01-12 14:02:00,
2013-01-12 09:33:00,56.0,54.0,-100.00,NNW,346,3.0,9.0,94,0.00,,,0.23,25.000000,,2013-01-12 14:33:00,
2013-01-12 09:43:00,56.0,54.0,-100.00,NNW,346,3.0,9.0,94,0.00,,,0.23,25.000000,,2013-01-12 14:43:00,
2013-01-12 09:53:00,56.0,54.0,-100.00,NNW,346,3.0,9.0,94,0.00,,,0.23,25.000000,,2013-01-12 14:53:00,
2013-01-12 10:03:00,56.0,54.0,-100.00,NNW,346,3.0,9.0,94,0.00,,,0.23,25.000000,,2013-01-12 15:03:00,
2013-01-12 10:34:00,58.0,56.0,-100.00,NNW,328,4.0,6.0,93,0.00,,,0.22,113.000000,,2013-01-12 15:34:00,
2013-01-12 10:43:00,58.0,56.0,-100.00,NNW,328,4.0,6.0,93,0.00,,,0.22,113.000000,,2013-01-12 15:43:00,
2013-01-12 10:53:00,58.0,56.0,-100.00,NNW,328,4.0,6.0,93,0.00,,,0.22,113.000000,,2013-01-12 15:53:00,
2013-01-12 11:03:00,58.0,56.0,-100.00,NNW,328,4.0,6.0,93,0.00,,,0.22,113.000000,,2013-01-12 16:03:00,
2013-01-12 11:33:00,59.0,57.0,-100.00,North,354,4.0,7.0,92,0.00,,,0.21,156.000000,,2013-01-12 16:33:00,
2013-01-12 11:43:00,59.0,57.0,-100.00,North,354,4.0,7.0,92,0.00,,,0.21,156.000000,,2013-01-12 16:43:00,
2013-01-12 11:53:00,59.0,57.0,-100.00,North,354,4.0,7.0,92,0.00,,,0.21,156.000000,,2013-01-12 16:53:00,
2013-01-12 12:02:00,59.0,57.0,-100.00,North,354,4.0,7.0,92,0.00,,,0.21,156.000000,,2013-01-12 17:02:00,
2013-01-12 12:33:00,60.0,56.0,-100.00,WNW,282,1.0,6.0,86,0.00,,,0.20,138.000000,,2013-01-12 17:33:00,
2013-01-12 12:43:00,60.0,56.0,-100.00,WNW,282,1.0,6.0,86,0.00,,,0.20,138.000000,,2013-01-12 17:43:00,
2013-01-12 12:53:00,60.0,56.0,-100.00,WNW,282,1.0,6.0,86,0.00,,,0.20,138.000000,,2013-01-12 17:53:00,
2013-01-12 13:03:00,60.0,56.0,-100.00,WNW,282,1.0,6.0,86,0.00,,,0.20,138.000000,,2013-01-12 18:03:00,
2013-01-12 13:33:00,61.0,57.0,-100.00,SW,221,3.0,6.0,87,0.00,,,0.20,146.000000,,2013-01-12 18:33:00,
2013-01-12 13:43:00,61.0,57.0,-100.00,SW,221,3.0,6.0,87,0.00,,,0.20,146.000000,,2013-01-12 18:43:00,
2013-01-12 13:53:00,61.0,57.0,-100.00,SW,221,3.0,6.0,87,0.00,,,0.20,146.000000,,2013-01-12 18:53:00,
2013-01-12 14:03:00,61.0,57.0,-100.00,SW,221,3.0,6.0,87,0.00,,,0.20,146.000000,,2013-01-12 19:03:00,
2013-01-12 14:33:00,66.0,57.0,-100.00,SW,215,5.0,8.0,74,0.00,,,0.20,436.000000,,2013-01-12 19:33:00,
2013-01-12 14:43:00,66.0,57.0,-100.00,SW,215,5.0,8.0,74,0.00,,,0.20,436.000000,,2013-01-12 19:43:00,
2013-01-12 14:53:00,66.0,57.0,-100.00,SW,215,5.0,8.0,74,0.00,,,0.20,436.000000,,2013-01-12 19:53:00,
2013-01-12 15:03:00,66.0,57.0,-100.00,SW,215,5.0,8.0,74,0.00,,,0.20,436.000000,,2013-01-12 20:03:00,
2013-01-12 15:33:00,65.0,56.0,-100.00,SSW,197,3.0,8.0,73,0.00,,,0.19,363.000000,,2013-01-12 20:33:00,
2013-01-12 15:43:00,65.0,56.0,-100.00,SSW,197,3.0,8.0,73,0.00,,,0.19,363.000000,,2013-01-12 20:43:00,
2013-01-12 15:53:00,65.0,56.0,-100.00,SSW,197,3.0,8.0,73,0.00,,,0.19,363.000000,,2013-01-12 20:53:00,
2013-01-12 16:03:00,65.0,56.0,-100.00,SSW,197,3.0,8.0,73,0.00,,,0.19,363.000000,,2013-01-12 21:03:00,
2013-01-12 16:33:00,62.0,54.0,-100.00,SSW,195,5.0,7.0,76,0.00,,,0.19,219.000000,,2013-01-12 21:33:00,
2013-01-12 16:43:00,62.0,54.0,-100.00,SSW,195,5.0,7.0,76,0.00,,,0.19,219.000000,,2013-01-12 21:43:00,
2013-01-12 16:53:00,62.0,54.0,-100.00,SSW,195,5.0,7.0,76,0.00,,,0.19,219.000000,,2013-01-12 21:53:00,
2013-01-12 17:03:00,62.0,54.0,-100.00,SSW,195,5.0,7.0,76,0.00,,,0.19,219.000000,,2013-01-12 22:03:00,
2013-01-12 17:33:00,56.0,53.0,-100.00,South,184,6.0,9.0,89,0.00,,,0.16,77.000000,,2013-01-12 22:33:00,
2013-01-12 17:43:00,56.0,53.0,-100.00,South,184,6.0,9.0,89,0.00,,,0.16,77.000000,,2013-01-12 22:43:00,
2013-01-12 17:53:00,56.0,53.0,-100.00,South,184,6.0,9.0,89,0.00,,,0.16,77.000000,,2013-01-12 22:53:00,
2013-01-12 18:03:00,56.0,53.0,-100.00,South,184,6.0,9.0,89,0.00,,,0.16,77.000000,,2013-01-12 23:03:00,
2013-01-12 18:33:00,54.0,53.0,-100.00,South,190,6.0,10.0,96,0.00,,,0.15,11.000000,,2013-01-12 23:33:00,
2013-01-12 18:43:00,54.0,53.0,-100.00,South,190,6.0,10.0,96,0.00,,,0.15,11.000000,,2013-01-12 23:43:00,
2013-01-12 18:53:00,54.0,53.0,-100.00,South,190,6.0,10.0,96,0.00,,,0.15,11.000000,,2013-01-12 23:53:00,
2013-01-12 19:03:00,54.0,53.0,-100.00,South,190,6.0,10.0,96,0.00,,,0.15,11.000000,,2013-01-13 00:03:00,
2013-01-12 19:33:00,54.0,53.0,-100.00,SSW,195,6.0,11.0,96,0.00,,,0.14,0.000000,,2013-01-13 00:33:00,
2013-01-12 19:43:00,54.0,53.0,-100.00,SSW,195,6.0,11.0,96,0.00,,,0.14,0.000000,,2013-01-13 00:43:00,
2013-01-12 19:53:00,54.0,53.0,-100.00,SSW,195,6.0,11.0,96,0.00,,,0.14,0.000000,,2013-01-13 00:53:00,
2013-01-12 20:03:00,54.0,53.0,-100.00,SSW,195,6.0,11.0,96,0.00,,,0.14,0.000000,,2013-01-13 01:03:00,
2013-01-12 20:33:00,54.0,53.0,-100.00,SSW,192,6.0,12.0,97,0.00,,,0.11,0.000000,,2013-01-13 01:33:00,
2013-01-12 20:43:00,54.0,53.0,-100.00,SSW,192,6.0,12.0,97,0.00,,,0.11,0.000000,,2013-01-13 01:43:00,
2013-01-12 20:53:00,54.0,53.0,-100.00,SSW,192,6.0,12.0,97,0.00,,,0.11,0.000000,,2013-01-13 01:53:00,
2013-01-12 21:02:00,54.0,53.0,-100.00,SSW,192,6.0,12.0,97,0.00,,,0.11,0.000000,,2013-01-13 02:02:00,
2013-01-12 21:33:00,54.0,53.0,-100.00,SSW,210,6.0,12.0,95,0.00,,,0.11,0.000000,,2013-01-13 02:33:00,
2013-01-12 21:43:00,54.0,53.0,-100.00,SSW,210,6.0,12.0,95,0.00,,,0.11,0.000000,,2013-01-13 02:43:00,
2013-01-12 21:53:00,54.0,53.0,-100.00,SSW,210,6.0,12.0,95,0.00,,,0.11,0.000000,,2013-01-13 02:53:00,
2013-01-12 22:03:00,54.0,53.0,-100.00,SSW,210,6.0,12.0,95,0.00,,,0.11,0.000000,,2013-01-13 03:03:00,
2013-01-12 22:33:00,54.0,53.0,-100.00,SSW,213,6.0,10.0,96,0.00,,,0.11,0.000000,,2013-01-13 03:33:00,
2013-01-12 22:43:00,54.0,53.0,-100.00,SSW,213,6.0,10.0,96,0.00,,,0.11,0.000000,,2013-01-13 03:43:00,
2013-01-12 22:53:00,54.0,53.0,-100.00,SSW,213,6.0,10.0,96,0.00,,,0.11,0.000000,,2013-01-13 03:53:00,
2013-01-12 23:03:00,54.0,53.0,-100.00,SSW,213,6.0,10.0,96,0.00,,,0.11,0.000000,,2013-01-13 04:03:00,
2013-01-12 23:33:00,54.0,53.0,-100.00,SSW,204,7.0,12.0,95,0.00,,,0.10,0.000000,,2013-01-13 04:33:00,
2013-01-12 23:43:00,54.0,53.0,-100.00,SSW,204,7.0,12.0,95,0.00,,,0.10,0.000000,,2013-01-13 04:43:00,
2013-01-12 23:53:00,54.0,53.0,-100.00,SSW,204,7.0,12.0,95,0.00,,,0.10,0.000000,,2013-01-13 04:53:00,